This is the latest recevied weather packets stored in our database for station/object KC3BAN-3. If no packets are shown the sender has not sent any weather packets the latest 10 day(s).
| Time | Temp. | Humidity | Pressure | Rain* | Wind** | Luminosity | Snow |
|---|---|---|---|---|---|---|---|
| 1777614550 | 15° C | 83% | 1012.8 hPa | 0 mm | - | - | - |
| 1777614252 | 15° C | 83% | 1012.9 hPa | 0 mm | - | - | - |
| 1777613949 | 15° C | 83% | 1012.8 hPa | 0 mm | - | - | - |
| 1777613796 | 14.44° C | 83% | 1012.8 hPa | 0 mm | - | - | - |
| 1777613350 | 14.44° C | 85% | 1012.8 hPa | 0 mm | - | - | - |
| 1777613177 | 14.44° C | 86% | 1012.9 hPa | 0 mm | - | - | - |
| 1777612750 | 14.44° C | 87% | 1012.9 hPa | 0 mm | - | - | - |
| 1777612450 | 14.44° C | 89% | 1012.9 hPa | 0 mm | - | - | - |
| 1777612149 | 14.44° C | 89% | 1012.8 hPa | 0 mm | - | - | - |
| 1777611850 | 14.44° C | 90% | 1012.8 hPa | 0 mm | - | - | - |
| 1777611549 | 13.89° C | 91% | 1012.7 hPa | 0 mm | - | - | - |
| 1777611380 | 13.89° C | 91% | 1012 hPa | 0 mm | - | - | - |
| 1777610947 | 13.89° C | 91% | 1012.1 hPa | 0 mm | - | - | - |
| 1777610646 | 13.89° C | 90% | 1012 hPa | 0 mm | - | - | - |
| 1777610346 | 13.89° C | 91% | 1011.8 hPa | 0 mm | - | - | - |
| 1777610046 | 13.33° C | 93% | 1012.2 hPa | 0 mm | - | - | - |
| 1777609747 | 12.22° C | 89% | 1011.7 hPa | 0 mm | - | - | - |
| 1777609446 | 12.22° C | 89% | 1011.5 hPa | 0 mm | - | - | - |
| 1777609149 | 12.78° C | 89% | 1011.4 hPa | 0 mm | - | - | - |
| 1777608849 | 13.33° C | 89% | 1011.5 hPa | 0 mm | - | - | - |
| 1777608545 | 13.33° C | 89% | 1011.4 hPa | 0 mm | - | - | - |
| 1777608246 | 13.33° C | 90% | 1011.4 hPa | 0 mm | - | - | - |
| 1777607945 | 13.33° C | 89% | 1011.4 hPa | 0 mm | - | - | - |
| 1777607647 | 13.33° C | 90% | 1011.3 hPa | 0 mm | - | - | - |
| 1777607345 | 13.33° C | 90% | 1011.2 hPa | 0 mm | - | - | - |
* Rain latest hour (hover to see other rain measurements)
** Current wind speed in m/s (hover to see current wind gust speed)